STARLINK-5576, 55382

Orbit data source: Space-Track

STARLINK-5576, 55382 is a payload satellite owned by SpaceX/Seattle (US) in LEO that was launched on Thu, 26 Jan 2023 UTC via an FALCON 9 launch vehicle from the Air Force Eastern Test Range (AFETR). Payload-class satellites include a variety of spacecraft equipped with specific instruments for various scientific and technological missions. These include communications satellites like Starlink; space stations such as the ISS; scientific satellites like the Hubble; Earth observation satellites from companies like Planet Labs, Umbra, and HawkEye 360; GPS; miniature CubeSats for education and research; and military/defense satellites.

Loading next visibility...
Identifier
55382, 2023-013BD
Orbit
LEO
Country
Flag of USUS
Related business
Manufacturer
SpaceX/Seattle
Mission
Operational Commercial Communications
Bus & Motor
STARLINK, Unknown motor
Mass
305 kg wet, ~290 kg dry
Launch date (UTC)
2023-01-26 (3 years ago)
Launch vehicle
FALCON 9
Launch site
Air Force Eastern Test Range (AFETR)
Object type
Payload
Rocket body
Debris
Shape & HBR
Box + 1 Pan, 10.1 m
Radar Cross Section
13.562 m², Large (>1 m²)

Expand to show TLE details & history
Last TLE update: 1 day ago

TLE from 1 day ago
0 STARLINK-5576
1 55382U 23013BD  25348.60179862  .00000886  00000-0  80696-4 0  9998
2 55382  43.0053  55.3508 0001274 257.9156 102.1544 15.02532519158762
Epoch: 2025-12-14T14:26Z
TLE epoch observation values (Epoch: 2025-12-14T14:26:35.400Z)
Latitude
-0.00001°
Longitude
115.19092°
Altitude
559.055 km
Speed
7.584 km/s
True Right ascension
03h 41m 24s
True Declination
0° 00' 00"
Sunlit
Object was in full shadow at epoch
Visualization orbit readout
Latitude
Unknown
Longitude
Unknown
Altitude
Unknown
Speed
Unknown
Apparent Right ascension
Unknown
Apparent Declination
Unknown
Sunlit
N/A
Visualization observer readout
Local Sidereal Time
15:07:28
Azimuth
Unknown
Elevation
Unknown
Doppler factor
Unknown
Orbital elements
Apogee altitude
561.897 km
Perigee altitude
560.129 km
Semi-major axis
6,939.15 km
Eccentricity
0.00013
Inclination
43.0053°
RAAN
55.3508°
Arg. of periapsis
257.9156°
True anomaly
102.16867°
Mean anomaly
102.1544°
Eccentric anomaly
102.16154°
Mean motion
3.75477 °/min
Orbital period
95.88 mins
BSTAR
0.000080696
Loading maneuver chart data...
Computing Atmospheric mass density...
Loading historical data...
Loading historical data...
Loading historical data...
Loading historical data...
Loading historical data...
Loading historical data...
Loading historical data...

Documentation

Showing up to 5 results
|